Time,TemperatureF,DewpointF,PressureIn,WindDirection,WindDirectionDegrees,WindSpeedMPH,WindSpeedGustMPH,Humidity,HourlyPrecipIn,Conditions,Clouds,dailyrainin,SoftwareType,DateUTC
2013-08-10 00:00:00,58.3,42.7,29.97,North,0,0.0,0.0,56,0.00,,CLR,0.00,VWS V14.00,2013-08-10 04:00:00,
2013-08-10 00:15:00,58.3,42.7,29.97,North,0,0.0,0.0,56,0.00,,CLR,0.00,VWS V14.00,2013-08-10 04:15:00,
2013-08-10 00:30:00,58.3,42.7,29.97,North,0,0.0,0.0,56,0.00,,CLR,0.00,VWS V14.00,2013-08-10 04:30:00,
2013-08-10 00:45:00,58.3,42.7,29.97,North,0,0.0,0.0,56,0.00,,CLR,0.00,VWS V14.00,2013-08-10 04:45:00,
2013-08-10 01:00:00,58.3,42.7,30.00,North,0,0.0,0.0,56,0.00,,CLR,0.00,VWS V14.00,2013-08-10 05:00:00,
2013-08-10 01:15:00,58.3,42.7,30.00,North,0,0.0,0.0,56,0.00,,CLR,0.00,VWS V14.00,2013-08-10 05:15:00,
2013-08-10 01:30:00,58.3,42.7,29.97,North,0,0.0,0.0,56,0.00,,CLR,0.00,VWS V14.00,2013-08-10 05:30:00,
2013-08-10 01:44:00,58.3,42.7,30.00,North,0,0.0,0.0,56,0.00,,CLR,0.00,VWS V14.00,2013-08-10 05:44:00,
2013-08-10 01:59:00,58.3,42.7,30.00,North,0,0.0,0.0,56,0.00,,CLR,0.00,VWS V14.00,2013-08-10 05:59:00,
2013-08-10 02:14:00,58.3,42.7,30.00,North,0,0.0,0.0,56,0.00,,CLR,0.00,VWS V14.00,2013-08-10 06:14:00,
2013-08-10 02:29:00,58.3,42.7,30.00,North,0,0.0,0.0,56,0.00,,CLR,0.00,VWS V14.00,2013-08-10 06:29:00,
2013-08-10 02:44:00,58.3,42.7,30.00,North,0,0.0,0.0,56,0.00,,CLR,0.00,VWS V14.00,2013-08-10 06:44:00,
2013-08-10 02:59:00,58.3,42.7,30.00,North,0,0.0,0.0,56,0.00,,CLR,0.00,VWS V14.00,2013-08-10 06:59:00,
2013-08-10 03:14:00,58.3,42.7,30.00,North,0,0.0,0.0,56,0.00,,CLR,0.00,VWS V14.00,2013-08-10 07:14:00,
2013-08-10 03:29:00,58.3,42.7,30.00,North,0,0.0,0.0,56,0.00,,CLR,0.00,VWS V14.00,2013-08-10 07:29:00,
2013-08-10 03:44:00,58.3,42.7,30.00,North,0,0.0,0.0,56,0.00,,CLR,0.00,VWS V14.00,2013-08-10 07:44:00,
2013-08-10 03:59:00,58.3,42.7,30.03,North,0,0.0,0.0,56,0.00,,,0.00,VWS V14.00,2013-08-10 07:59:00,
2013-08-10 04:14:00,58.3,42.7,30.03,North,0,0.0,0.0,56,0.00,,,0.00,VWS V14.00,2013-08-10 08:14:00,
2013-08-10 04:29:00,58.3,42.7,30.00,North,0,0.0,0.0,56,0.00,,,0.00,VWS V14.00,2013-08-10 08:29:00,
2013-08-10 04:44:00,58.3,42.7,30.03,North,0,0.0,0.0,56,0.00,,,0.00,VWS V14.00,2013-08-10 08:44:00,
2013-08-10 04:59:00,58.3,42.7,30.03,North,0,0.0,0.0,56,0.00,,,0.00,VWS V14.00,2013-08-10 08:59:00,
2013-08-10 05:14:00,58.3,42.7,30.03,North,0,0.0,0.0,56,0.00,,,0.00,VWS V14.00,2013-08-10 09:14:00,
2013-08-10 05:29:00,58.3,42.7,30.03,North,0,0.0,0.0,56,0.00,,,0.00,VWS V14.00,2013-08-10 09:29:00,
2013-08-10 05:44:00,58.3,42.7,30.03,North,0,0.0,0.0,56,0.00,,,0.00,VWS V14.00,2013-08-10 09:44:00,
2013-08-10 05:59:00,58.3,42.7,30.03,North,0,0.0,0.0,56,0.00,,CLR,0.00,VWS V14.00,2013-08-10 09:59:00,
2013-08-10 06:14:00,58.3,42.7,30.03,North,0,0.0,0.0,56,0.00,,CLR,0.00,VWS V14.00,2013-08-10 10:14:00,
2013-08-10 06:29:00,58.3,42.7,30.03,North,0,0.0,0.0,56,0.00,,CLR,0.00,VWS V14.00,2013-08-10 10:29:00,
2013-08-10 06:44:00,58.3,42.7,30.06,North,0,0.0,0.0,56,0.00,,CLR,0.00,VWS V14.00,2013-08-10 10:44:00,
2013-08-10 06:59:00,58.3,42.7,30.06,North,0,0.0,0.0,56,0.00,,,0.00,VWS V14.00,2013-08-10 10:59:00,
2013-08-10 07:14:00,58.3,42.7,30.06,North,0,0.0,0.0,56,0.00,,,0.00,VWS V14.00,2013-08-10 11:14:00,
2013-08-10 07:29:00,58.3,42.7,30.06,North,0,0.0,0.0,56,0.00,,,0.00,VWS V14.00,2013-08-10 11:29:00,
2013-08-10 07:44:00,58.3,42.7,30.06,North,0,0.0,0.0,56,0.00,,,0.00,VWS V14.00,2013-08-10 11:44:00,
2013-08-10 08:00:00,58.3,42.7,30.06,North,0,0.0,0.0,56,0.00,,,0.00,VWS V14.00,2013-08-10 12:00:00,
2013-08-10 08:14:00,58.3,42.7,30.06,North,0,0.0,0.0,56,0.00,,,0.00,VWS V14.00,2013-08-10 12:14:00,
2013-08-10 08:29:00,58.3,42.7,30.06,North,0,0.0,0.0,56,0.00,,,0.00,VWS V14.00,2013-08-10 12:29:00,
2013-08-10 08:44:00,58.3,42.7,30.06,North,0,0.0,0.0,56,0.00,,,0.00,VWS V14.00,2013-08-10 12:44:00,
2013-08-10 08:59:00,58.3,42.7,30.06,North,0,0.0,0.0,56,0.00,,,0.00,VWS V14.00,2013-08-10 12:59:00,
2013-08-10 09:14:00,58.3,42.7,30.06,North,0,0.0,0.0,56,0.00,,,0.00,VWS V14.00,2013-08-10 13:14:00,
2013-08-10 09:29:00,58.3,42.7,30.06,North,0,0.0,0.0,56,0.00,,,0.00,VWS V14.00,2013-08-10 13:29:00,
2013-08-10 09:44:00,58.3,42.7,30.06,North,0,0.0,0.0,56,0.00,,,0.00,VWS V14.00,2013-08-10 13:44:00,
2013-08-10 09:59:00,58.3,42.7,30.06,North,0,0.0,0.0,56,0.00,,FEW100,0.00,VWS V14.00,2013-08-10 13:59:00,
2013-08-10 10:14:00,58.3,42.7,30.06,North,0,0.0,0.0,56,0.00,,FEW100,0.00,VWS V14.00,2013-08-10 14:14:00,
2013-08-10 10:29:00,58.3,42.7,30.06,North,0,0.0,0.0,56,0.00,,FEW100,0.00,VWS V14.00,2013-08-10 14:29:00,
2013-08-10 10:44:00,58.3,42.7,30.06,North,0,0.0,0.0,56,0.00,,FEW100,0.00,VWS V14.00,2013-08-10 14:44:00,
2013-08-10 10:59:00,58.3,42.7,30.09,North,0,0.0,0.0,56,0.00,,CLR,0.00,VWS V14.00,2013-08-10 14:59:00,
2013-08-10 11:14:00,58.3,42.7,30.06,North,0,0.0,0.0,56,0.00,,CLR,0.00,VWS V14.00,2013-08-10 15:14:00,
2013-08-10 11:29:00,58.3,42.7,30.06,North,0,0.0,0.0,56,0.00,,CLR,0.00,VWS V14.00,2013-08-10 15:29:00,
2013-08-10 11:44:00,58.3,42.7,30.09,North,0,0.0,0.0,56,0.00,,CLR,0.00,VWS V14.00,2013-08-10 15:44:00,
2013-08-10 12:00:00,58.3,42.7,30.06,North,0,0.0,0.0,56,0.00,,CLR,0.00,VWS V14.00,2013-08-10 16:00:00,
2013-08-10 12:15:00,58.3,42.7,30.06,North,0,0.0,0.0,56,0.00,,CLR,0.00,VWS V14.00,2013-08-10 16:15:00,
2013-08-10 12:29:00,58.3,42.7,30.06,North,0,0.0,0.0,56,0.00,,CLR,0.00,VWS V14.00,2013-08-10 16:29:00,
2013-08-10 12:45:00,58.3,42.7,30.06,North,0,0.0,0.0,56,0.00,,CLR,0.00,VWS V14.00,2013-08-10 16:45:00,
2013-08-10 13:30:00,86.2,34.8,30.05,North,0,0.0,0.0,16,0.00,,CLR,0.00,VWS V14.00,2013-08-10 17:30:00,
2013-08-10 13:44:00,85.3,34.1,30.05,North,0,0.0,0.0,16,0.00,,CLR,0.00,VWS V14.00,2013-08-10 17:44:00,
2013-08-10 13:59:00,86.9,35.3,30.02,North,0,0.0,0.0,16,0.00,,CLR,0.00,VWS V14.00,2013-08-10 17:59:00,
2013-08-10 14:14:00,86.7,35.2,30.02,North,0,0.0,0.0,16,0.00,,CLR,0.00,VWS V14.00,2013-08-10 18:14:00,
2013-08-10 14:29:00,88.3,34.9,30.02,North,0,0.0,0.0,15,0.00,,CLR,0.00,VWS V14.00,2013-08-10 18:29:00,
2013-08-10 14:44:00,85.3,34.1,30.02,North,0,0.0,0.0,16,0.00,,CLR,0.00,VWS V14.00,2013-08-10 18:44:00,
2013-08-10 14:59:00,87.1,30.3,30.02,North,0,0.0,0.0,13,0.00,,BKN060,0.00,VWS V14.00,2013-08-10 18:59:00,
2013-08-10 15:00:00,87.1,30.3,30.02,North,0,0.0,0.0,13,0.00,,BKN060,0.00,VWS V14.00,2013-08-10 19:00:00,
2013-08-10 15:14:00,88.5,60.4,30.02,North,0,0.0,0.0,39,0.00,,BKN060,0.00,VWS V14.00,2013-08-10 19:14:00,
2013-08-10 15:29:00,88.2,60.1,30.02,North,0,0.0,0.0,39,0.00,,BKN060,0.00,VWS V14.00,2013-08-10 19:29:00,
2013-08-10 15:45:00,87.8,59.8,30.02,North,0,0.0,0.0,39,0.00,,BKN060,0.00,VWS V14.00,2013-08-10 19:45:00,
2013-08-10 15:59:00,87.8,59.8,30.02,North,0,0.0,0.0,39,0.00,,FEW050,0.00,VWS V14.00,2013-08-10 19:59:00,
2013-08-10 16:14:00,88.7,60.6,30.02,North,0,0.0,0.0,39,0.00,,FEW050,0.00,VWS V14.00,2013-08-10 20:14:00,
2013-08-10 16:30:00,89.2,61.1,30.02,North,0,0.0,0.0,39,0.00,,FEW050,0.00,VWS V14.00,2013-08-10 20:30:00,
2013-08-10 16:44:00,89.2,61.1,30.02,North,0,0.0,0.0,39,0.00,,FEW050,0.00,VWS V14.00,2013-08-10 20:44:00,
2013-08-10 17:00:00,89.2,61.1,30.02,North,0,0.0,0.0,39,0.00,,SCT070,0.00,VWS V14.00,2013-08-10 21:00:00,
2013-08-10 17:14:00,87.6,59.6,30.02,North,0,0.0,0.0,39,0.00,,SCT070,0.00,VWS V14.00,2013-08-10 21:14:00,
2013-08-10 17:29:00,86.5,58.7,30.02,North,0,0.0,0.0,39,0.00,,SCT070,0.00,VWS V14.00,2013-08-10 21:29:00,
2013-08-10 17:44:00,87.1,59.2,30.02,North,0,0.0,0.0,39,0.00,,SCT070,0.00,VWS V14.00,2013-08-10 21:44:00,
2013-08-10 17:59:00,86.5,58.7,30.02,North,0,0.0,0.0,39,0.00,,CLR,0.00,VWS V14.00,2013-08-10 21:59:00,
2013-08-10 18:14:00,85.5,57.7,30.02,North,0,0.0,0.0,39,0.00,,CLR,0.00,VWS V14.00,2013-08-10 22:14:00,
2013-08-10 18:29:00,85.5,57.7,30.02,North,0,0.0,0.0,39,0.00,,CLR,0.00,VWS V14.00,2013-08-10 22:29:00,
2013-08-10 18:44:00,84.2,56.6,30.02,North,0,0.0,0.0,39,0.00,,CLR,0.00,VWS V14.00,2013-08-10 22:44:00,
2013-08-10 18:59:00,83.3,56.5,30.02,North,0,0.0,0.0,40,0.00,,CLR,0.00,VWS V14.00,2013-08-10 22:59:00,
2013-08-10 19:14:00,81.9,55.2,30.02,North,0,0.0,0.0,40,0.00,,CLR,0.00,VWS V14.00,2013-08-10 23:14:00,
2013-08-10 19:30:00,80.8,54.2,30.05,North,0,0.0,0.0,40,0.00,,CLR,0.00,VWS V14.00,2013-08-10 23:30:00,
2013-08-10 19:44:00,78.8,54.4,30.05,North,0,0.0,0.0,43,0.00,,CLR,0.00,VWS V14.00,2013-08-10 23:44:00,
2013-08-10 19:59:00,75.6,59.3,30.05,North,0,0.0,0.0,57,0.00,,CLR,0.00,VWS V14.00,2013-08-10 23:59:00,
2013-08-10 20:14:00,74.5,59.2,30.05,North,0,0.0,0.0,59,0.00,,CLR,0.00,VWS V14.00,2013-08-11 00:14:00,
2013-08-10 20:29:00,73.0,61.9,30.05,North,0,0.0,0.0,68,0.00,,CLR,0.00,VWS V14.00,2013-08-11 00:29:00,
2013-08-10 20:45:00,71.1,69.2,30.05,North,0,0.0,0.0,94,0.00,,CLR,0.00,VWS V14.00,2013-08-11 00:45:00,
2013-08-10 21:00:00,70.0,69.1,30.08,North,0,0.0,0.0,97,0.00,,CLR,0.00,VWS V14.00,2013-08-11 01:00:00,
2013-08-10 21:15:00,69.3,69.3,30.08,North,0,0.0,0.0,100,0.00,,CLR,0.00,VWS V14.00,2013-08-11 01:15:00,
2013-08-10 21:30:00,68.7,68.7,30.08,North,0,0.0,0.0,100,0.00,,CLR,0.00,VWS V14.00,2013-08-11 01:30:00,
2013-08-10 21:45:00,68.0,68.0,30.08,North,0,0.0,0.0,100,0.00,,CLR,0.00,VWS V14.00,2013-08-11 01:45:00,
2013-08-10 22:00:00,67.6,67.6,30.08,North,0,0.0,0.0,100,0.00,,CLR,0.00,VWS V14.00,2013-08-11 02:00:00,
2013-08-10 22:15:00,66.7,66.7,30.08,North,0,0.0,0.0,100,0.00,,CLR,0.00,VWS V14.00,2013-08-11 02:15:00,
2013-08-10 22:30:00,66.6,66.6,30.08,North,0,0.0,0.0,100,0.00,,CLR,0.00,VWS V14.00,2013-08-11 02:30:00,
2013-08-10 22:45:00,66.2,66.2,30.08,North,0,0.0,0.0,100,0.00,,CLR,0.00,VWS V14.00,2013-08-11 02:45:00,
2013-08-10 23:00:00,65.5,65.5,30.08,North,0,0.0,0.0,100,0.00,,CLR,0.00,VWS V14.00,2013-08-11 03:00:00,
2013-08-10 23:15:00,64.8,64.8,30.08,North,0,0.0,0.0,100,0.00,,CLR,0.00,VWS V14.00,2013-08-11 03:15:00,
2013-08-10 23:30:00,64.2,64.2,30.08,North,0,0.0,0.0,100,0.00,,CLR,0.00,VWS V14.00,2013-08-11 03:30:00,
2013-08-10 23:45:00,63.9,63.9,30.08,North,0,0.0,0.0,100,0.00,,CLR,0.00,VWS V14.00,2013-08-11 03:45:00,